EW9430 Weather Reports


time (UTC)temp
C
wind
direction
speed
KPH
gust
KPH
rain 1hr
cm
rain 24hr
cm
rain mn
cm
humidity
%
barometer
mb
20260507095015 11 202 0.0 3.2 0.00 0.00 0.00 74 1015.0
20260507094016 11 58 0.0 4.8 0.00 0.00 0.00 74 1015.2
20260507093015 11 57 0.0 3.2 0.00 0.00 0.00 75 1015.2
20260507092036 11 62 0.0 4.8 0.00 0.00 0.00 75 1015.3
20260507091016 11 185 0.0 3.2 0.00 0.00 0.00 75 1015.3
20260507090016 12 0.0 0.0 0.00 0.00 0.00 76 1015.3
20260507085055 12 2 0.0 6.4 0.00 0.00 0.00 76 1015.3
20260507084015 12 0.0 4.8 0.00 0.00 0.00 76 1015.3
20260507083016 12 90 0.0 3.2 0.00 0.00 0.00 76 1015.3
20260507082016 12 90 0.0 3.2 0.00 0.00 0.00 77 1015.3
20260507081017 12 79 0.0 3.2 0.00 0.00 0.00 78 1015.3
20260507080015 12 96 0.0 3.2 0.00 0.00 0.00 78 1015.3
20260507075016 12 63 0.0 3.2 0.00 0.00 0.00 78 1015.3
20260507074036 12 0.0 0.0 0.00 0.00 0.00 78 1015.3
20260507073017 12 220 0.0 6.4 0.00 0.00 0.00 78 1015.3
20260507072036 12 67 0.0 3.2 0.00 0.00 0.00 78 1015.3
20260507071015 12 0.0 0.0 0.00 0.00 0.00 78 1015.1
20260507070016 12 360 0.0 3.2 0.00 0.00 0.00 77 1015.0
20260507065015 12 2 0.0 3.2 0.00 0.00 0.00 77 1015.3
20260507064016 13 80 0.0 4.8 0.00 0.00 0.00 76 1015.2
20260507063016 13 45 0.0 1.6 0.00 0.00 0.00 76 1015.3
20260507062016 13 347 1.6 6.4 0.00 0.00 0.00 76 1015.3
20260507061016 13 316 0.0 3.2 0.00 0.00 0.00 77 1015.3
20260507060015 13 67 0.0 1.6 0.00 0.00 0.00 78 1015.2
20260507055016 13 360 0.0 4.8 0.00 0.00 0.00 77 1015.1
20260507054016 13 358 1.6 3.2 0.00 0.00 0.00 77 1015.1
20260507053036 13 33 0.0 3.2 0.00 0.00 0.00 76 1015.0
20260507052015 13 344 1.6 4.8 0.00 0.00 0.00 76 1015.0
20260507051017 14 337 1.6 6.4 0.00 0.00 0.00 76 1015.0
20260507050117 14 337 3.2 6.4 0.00 0.00 0.00 75 1015.1
20260507045016 14 347 3.2 8.0 0.00 0.00 0.00 75 1015.1
20260507044016 14 343 3.2 8.0 0.00 0.00 0.00 75 1015.0
20260507043015 15 345 1.6 6.4 0.00 0.00 0.00 74 1015.0
20260507042016 15 343 3.2 6.4 0.00 0.00 0.00 74 1014.9
20260507041016 15 346 1.6 6.4 0.00 0.00 0.00 74 1014.6
20260507040015 16 351 1.6 9.7 0.00 0.00 0.00 73 1014.5
20260507035036 16 342 1.6 4.8 0.00 0.00 0.00 73 1014.3
20260507034016 16 337 3.2 9.7 0.00 0.00 0.00 73 1014.3
20260507033017 16 15 1.6 4.8 0.00 0.00 0.00 72 1014.0
20260507032015 16 360 0.0 3.2 0.00 0.00 0.00 71 1013.9
20260507031015 16 45 1.6 6.4 0.00 0.00 0.00 71 1013.7
20260507030017 17 337 1.6 4.8 0.00 0.00 0.00 71 1013.6
20260507025035 17 337 1.6 3.2 0.00 0.00 0.00 70 1013.6
20260507024016 17 337 0.0 3.2 0.00 0.00 0.00 69 1013.6
20260507023036 17 337 1.6 4.8 0.00 0.00 0.00 68 1013.5
20260507022036 18 5 1.6 4.8 0.00 0.00 0.00 68 1013.6
20260507021015 18 45 0.0 3.2 0.00 0.00 0.00 67 1013.5
20260507020016 18 21 1.6 6.4 0.00 0.00 0.00 67 1013.6
20260507015015 18 344 1.6 6.4 0.00 0.00 0.00 66 1013.6
20260507014017 18 360 1.6 6.4 0.00 0.00 0.00 67 1013.6
20260507013016 19 0.0 3.2 0.00 0.00 0.00 67 1013.6
20260507012016 19 340 3.2 8.0 0.00 0.00 0.00 65 1013.3
20260507011016 20 3 1.6 6.4 0.00 0.00 0.00 64 1013.3
20260507010016 20 359 1.6 6.4 0.00 0.00 0.00 65 1013.3
20260507005036 20 225 0.0 1.6 0.00 0.00 0.00 65 1013.3
20260507004017 20 225 0.0 3.2 0.00 0.00 0.00 64 1013.1
20260507003015 20 225 0.0 3.2 0.00 0.00 0.00 65 1013.3
20260507002037 20 225 1.6 3.2 0.00 0.00 0.00 64 1013.3
20260507001015 20 225 1.6 4.8 0.00 0.00 0.00 65 1013.3
20260507000016 20 225 1.6 4.8 0.00 0.00 0.00 65 1013.2
20260506235016 20 225 0.0 3.2 0.00 0.00 0.00 66 1013.3
20260506234015 20 234 1.6 4.8 0.00 0.00 0.00 66 1013.3
20260506233015 20 225 0.0 4.8 0.00 0.00 0.00 66 1013.2
20260506232016 20 225 1.6 4.8 0.00 0.00 0.00 66 1013.3
20260506231016 20 202 0.0 3.2 0.00 0.00 0.00 65 1013.4
20260506230017 20 226 0.0 4.8 0.00 0.00 0.00 64 1013.6
20260506225016 20 225 0.0 4.8 0.00 0.00 0.00 63 1013.6
20260506224015 21 231 1.6 6.4 0.00 0.00 0.00 64 1013.6
20260506223059 20 235 3.2 8.0 0.00 0.00 0.00 66 1013.6
20260506222016 20 225 0.0 4.8 0.00 0.00 0.00 67 1013.8
20260506221015 19 234 1.6 6.4 0.00 0.00 0.00 68 1013.9
20260506220017 19 236 1.6 6.4 0.00 0.00 0.00 67 1013.9
20260506215017 19 243 1.6 6.4 0.00 0.00 0.00 68 1013.8
20260506214016 19 225 1.6 4.8 0.00 0.00 0.00 68 1013.9
20260506213016 19 227 1.6 4.8 0.00 0.00 0.00 68 1014.0
20260506212016 20 225 1.6 4.8 0.00 0.00 0.00 67 1014.3
20260506211036 20 225 1.6 6.4 0.00 0.00 0.00 68 1014.3
20260506210015 18 249 0.0 4.8 0.00 0.00 0.00 69 1014.3
20260506205016 18 225 3.2 6.4 0.00 0.00 0.00 70 1014.3
20260506204019 18 238 1.6 6.4 0.00 0.00 0.00 71 1014.3
20260506203015 18 234 3.2 8.0 0.00 0.00 0.00 71 1014.3
20260506202016 18 232 1.6 6.4 0.00 0.00 0.00 74 1014.3
20260506201015 17 224 1.6 3.2 0.00 0.00 0.00 75 1014.4
20260506200016 17 0.0 0.0 0.00 0.00 0.00 74 1014.6
20260506195015 17 270 0.0 1.6 0.00 0.00 0.00 74 1014.8
20260506194016 17 236 1.6 3.2 0.00 0.00 0.00 73 1014.7
20260506193016 18 247 1.6 4.8 0.00 0.00 0.00 72 1014.6
20260506192017 18 214 0.0 3.2 0.00 0.00 0.00 72 1014.6
20260506191017 17 226 3.2 6.4 0.00 0.00 0.00 72 1014.6
20260506190057 17 235 3.2 6.4 0.00 0.00 0.00 74 1014.6
20260506185037 17 239 1.6 4.8 0.00 0.00 0.00 75 1014.5
20260506184015 16 226 3.2 4.8 0.00 0.00 0.00 78 1014.5
20260506183017 16 245 1.6 4.8 0.00 0.00 0.00 78 1014.6
20260506182016 16 234 0.0 3.2 0.00 0.00 0.00 78 1014.6
20260506181036 16 226 1.6 3.2 0.00 0.00 0.00 79 1014.6
20260506180016 15 229 1.6 4.8 0.00 0.00 0.00 79 1014.7
20260506175016 15 225 1.6 4.8 0.00 0.00 0.00 79 1014.6
20260506174016 15 270 0.0 1.6 0.00 0.00 0.00 80 1014.6
20260506173015 15 225 1.6 4.8 0.00 0.00 0.00 80 1014.4
20260506172016 15 247 0.0 3.2 0.00 0.00 0.00 82 1014.4
20260506171016 14 22 0.0 3.2 0.00 0.00 0.00 82 1014.6
20260506170055 14 0.0 1.6 0.00 0.00 0.00 82 1014.6
20260506165137 14 0.0 0.0 0.00 0.00 0.00 82 1014.6
20260506164017 15 225 1.6 4.8 0.00 0.00 0.00 82 1014.6
20260506163016 15 225 0.0 3.2 0.00 0.00 0.00 83 1014.6
20260506162017 15 247 0.0 1.6 0.00 0.00 0.00 84 1014.3
20260506161016 14 247 0.0 3.2 0.00 0.00 0.00 85 1014.3
20260506160016 13 225 1.6 3.2 0.00 0.00 0.00 86 1014.2
20260506155016 13 234 1.6 6.4 0.00 0.00 0.00 87 1013.8
20260506154020 13 247 1.6 3.2 0.00 0.00 0.00 88 1013.9
20260506153017 12 247 0.0 1.6 0.00 0.00 0.00 88 1014.3
20260506152036 12 247 0.0 1.6 0.00 0.00 0.00 88 1014.6
20260506151036 12 244 0.0 1.6 0.00 0.00 0.00 88 1014.6
20260506150016 12 239 1.6 4.8 0.00 0.00 0.00 88 1014.3
20260506145015 12 0.0 0.0 0.00 0.00 0.00 88 1014.4
20260506144057 12 0.0 0.0 0.00 0.00 0.00 88 1014.3
20260506143016 12 0.0 0.0 0.00 0.00 0.00 89 1014.0
20260506142016 12 0.0 1.6 0.00 0.00 0.00 89 1013.7
20260506141016 12 247 0.0 3.2 0.00 0.00 0.00 88 1013.6
20260506140016 12 225 3.2 4.8 0.00 0.00 0.00 88 1013.5
20260506135056 12 228 1.6 4.8 0.00 0.00 0.00 88 1013.6
20260506134015 13 246 1.6 4.8 0.00 0.00 0.00 89 1013.4
20260506133015 13 0.0 1.6 0.00 0.00 0.00 89 1013.3
20260506132036 13 0.0 0.0 0.00 0.00 0.00 88 1013.3
20260506131015 13 0.0 0.0 0.00 0.00 0.00 87 1013.1
20260506130036 13 0.0 0.0 0.00 0.00 0.00 87 1013.3
20260506125015 13 0.0 0.0 0.00 0.00 0.00 86 1013.1
20260506124015 13 0.0 0.0 0.00 0.00 0.00 86 1012.9
20260506123015 13 0.0 0.0 0.00 0.00 0.00 86 1012.9
20260506122015 13 0.0 0.0 0.00 0.00 0.00 86 1013.2
20260506121015 13 0.0 1.6 0.00 0.00 0.00 86 1012.9
20260506120016 13 22 0.0 4.8 0.00 0.00 0.00 87 1012.9
20260506115015 13 0.0 0.0 0.00 0.00 0.00 87 1012.8
20260506114016 13 0.0 0.0 0.00 0.00 0.00 86 1012.6
20260506113015 13 0.0 0.0 0.00 0.00 0.00 86 1012.6
20260506112121 13 0.0 0.0 0.00 0.00 0.00 86 1012.4
20260506111036 13 0.0 0.0 0.00 0.00 0.00 86 1012.2
20260506110016 13 0.0 0.0 0.00 0.00 0.00 86 1012.2
20260506105036 13 0.0 0.0 0.00 0.00 0.00 86 1012.1
20260506104016 14 0.0 0.0 0.00 0.00 0.00 85 1011.9
20260506103016 14 0.0 0.0 0.00 0.00 0.00 85 1011.8
20260506102016 14 0.0 0.0 0.00 0.00 0.00 85 1011.6
20260506101015 14 0.0 0.0 0.00 0.00 0.00 85 1011.6
20260506100035 14 0.0 0.0 0.00 0.00 0.00 85 1011.6